Tacoma, WA

11:26 AM PDT on April 23, 2018 (GMT -0700)
McChord Air Force Base

Weather History for KTCM - March, 2012

Change the Weather History Date:

Saturday, March 31, 2012

  Actual Average Record
Temperature  
Mean Temperature 44 °F -  
Max Temperature 51 °F 52 °F 72 °F (2016)
Min Temperature 37 °F 33 °F 28 °F (1970)
Degree Days  
Heating Degree Days 21    
Moisture  
Dew Point 40 °F    
Average Humidity 89    
Maximum Humidity 100    
Minimum Humidity 71    
Precipitation  
Precipitation 0.48 in - - ()
Sea Level Pressure  
Sea Level Pressure 29.48 in    
Wind  
Wind Speed 7 mph (NE)    
Max Wind Speed 20 mph    
Max Gust Speed 29 mph    
Visibility 10 miles    
Events Rain    
Averages and records for this station are not official NWS values.
T = Trace of Precipitation, MM = Missing Value Source: NWS Daily Summary

Daily Weather History Graph

Daily Weather History Graph

Search for Another Location

Airport or City:

Astronomy

Mar. 31, 2012 Rise Set
Actual Time 6:49 AM PDT 7:38 PM PDT
Civil Twilight 6:18 AM PDT 8:09 PM PDT
Nautical Twilight 5:42 AM PDT 8:46 PM PDT
Astronomical Twilight 5:03 AM PDT 9:25 PM PDT
Moon 12:48 PM PDT (3/31) 3:15 AM PDT (3/31)
Length of Visible Light 13h 50m
Length of Day
12h 49m
First Quarter, 60% of the Moon is Illuminated
Mar 31
First Quarter
Apr 6
Full
Apr 13
Last Quarter
Apr 21
New
Apr 29
First Quarter

Hourly Weather History & Observations

Time (PDT) Temp. Windchill Dew Point Humidity Pressure Visibility Wind Dir Wind Speed Gust Speed Precip Events Conditions
12:55 AM 41.5 °F 37.8 °F 37.6 °F 86% 29.68 in 10.0 mi NNE 5.8 mph - N/A   Overcast
1:55 AM 41.7 °F 36.7 °F 36.7 °F 82% 29.62 in 10.0 mi NNE 8.1 mph - N/A   Scattered Clouds
2:55 AM 41.9 °F 40.0 °F 36.5 °F 81% 29.60 in 10.0 mi NNE 3.5 mph - N/A   Mostly Cloudy
3:20 AM 42.8 °F 39.3 °F 37.4 °F 81% 29.59 in 10.0 mi NE 5.8 mph - N/A Rain Light Rain
3:28 AM 42.8 °F 38.0 °F 37.4 °F 81% 29.58 in 10.0 mi NE 8.1 mph - N/A Rain Light Rain
3:29 AM 42.8 °F 39.3 °F 37.4 °F 81% 29.58 in 10.0 mi NE 5.8 mph - N/A Rain Light Rain
3:31 AM 41.0 °F 36.4 °F 37.4 °F 87% 29.58 in 10.0 mi NE 6.9 mph - N/A Rain Light Rain
3:55 AM 40.8 °F 35.6 °F 38.1 °F 90% 29.56 in 9.0 mi NE 8.1 mph - 0.02 in Rain Light Rain
4:55 AM 40.3 °F 33.0 °F 38.7 °F 94% 29.49 in 10.0 mi North 12.7 mph - 0.07 in Rain Light Rain
5:43 AM 39.2 °F 31.2 °F 37.4 °F 93% 29.46 in 10.0 mi North 13.8 mph - N/A   Overcast
5:55 AM 39.2 °F 31.6 °F 37.4 °F 93% 29.46 in 10.0 mi North 12.7 mph - 0.06 in Rain Rain
6:37 AM 39.2 °F 29.6 °F 37.4 °F 93% 29.43 in 10.0 mi North 19.6 mph - N/A Rain Rain
6:40 AM 39.2 °F 30.2 °F 37.4 °F 93% 29.43 in 10.0 mi North 17.3 mph 23.0 mph N/A Rain Light Rain
6:48 AM 37.4 °F 28.2 °F 37.4 °F 100% 29.42 in 10.0 mi North 16.1 mph 25.3 mph N/A   Overcast
6:55 AM 38.1 °F 28.8 °F 36.5 °F 94% 29.42 in 10.0 mi North 17.3 mph 28.8 mph 0.07 in   Overcast
7:42 AM 37.4 °F 27.8 °F 37.4 °F 100% 29.40 in 9.0 mi North 17.3 mph - N/A   Overcast
7:54 AM 37.4 °F 27.8 °F 37.4 °F 100% 29.41 in 10.0 mi North 17.3 mph 27.6 mph N/A Rain Light Rain
7:55 AM 38.1 °F 28.1 °F 36.9 °F 95% 29.41 in 9.0 mi North 19.6 mph 24.2 mph 0.04 in Rain Light Rain
7:59 AM 37.4 °F 28.5 °F 37.4 °F 100% 29.41 in 8.0 mi North 15.0 mph 24.2 mph N/A Rain Rain
8:15 AM 39.2 °F 32.5 °F 37.4 °F 93% 29.42 in 7.0 mi North 10.4 mph - N/A Rain Rain
8:27 AM 39.2 °F 31.6 °F 37.4 °F 93% 29.41 in 10.0 mi North 12.7 mph 18.4 mph N/A Rain Light Rain
8:55 AM 38.8 °F 32.1 °F 37.6 °F 95% 29.43 in 10.0 mi North 10.4 mph 20.7 mph 0.05 in Rain Light Rain
9:19 AM 39.2 °F 37.0 °F 37.4 °F 93% 29.46 in 9.0 mi North 3.5 mph - N/A Rain Light Rain
9:51 AM 39.2 °F 35.0 °F 37.4 °F 93% 29.48 in 7.0 mi NNE 5.8 mph - N/A Rain Light Rain
9:55 AM 39.4 °F 36.1 °F 37.9 °F 95% 29.48 in 8.0 mi NNE 4.6 mph - 0.04 in Rain Light Rain
10:03 AM 39.2 °F 35.9 °F 37.4 °F 93% 29.47 in 8.0 mi NNE 4.6 mph - N/A Rain Light Rain
10:32 AM 39.2 °F 33.6 °F 37.4 °F 93% 29.47 in 9.0 mi ENE 8.1 mph - N/A Rain Light Rain
10:39 AM 39.2 °F 34.2 °F 39.2 °F 100% 29.47 in 9.0 mi East 6.9 mph - N/A Rain Light Rain
10:42 AM 39.2 °F 34.2 °F 39.2 °F 100% 29.47 in 9.0 mi East 6.9 mph - N/A Rain Light Rain
10:50 AM 39.2 °F 35.0 °F 37.4 °F 93% 29.47 in 10.0 mi East 5.8 mph - N/A Rain Light Rain
10:52 AM 39.2 °F 33.6 °F 39.2 °F 100% 29.46 in 10.0 mi ENE 8.1 mph - N/A Rain Light Rain
10:55 AM 40.1 °F 34.7 °F 38.7 °F 95% 29.46 in 10.0 mi East 8.1 mph - 0.03 in Rain Light Rain
11:02 AM 39.2 °F 33.6 °F 39.2 °F 100% 29.46 in 10.0 mi ENE 8.1 mph - N/A   Overcast
11:11 AM 41.0 °F 38.0 °F 39.2 °F 93% 29.47 in 10.0 mi ENE 4.6 mph - N/A   Mostly Cloudy
11:21 AM 41.0 °F 37.1 °F 39.2 °F 93% 29.47 in 10.0 mi ENE 5.8 mph - N/A Rain Light Rain
11:55 AM 40.8 °F - 38.5 °F 91% 29.48 in 10.0 mi Calm Calm - 0.01 in Rain Light Rain
11:58 AM 41.0 °F - 39.2 °F 93% 29.48 in 10.0 mi Calm Calm - N/A Rain Light Rain
12:31 PM 41.0 °F - 39.2 °F 93% 29.47 in 10.0 mi Calm Calm - N/A   Mostly Cloudy
12:55 PM 42.1 °F 40.2 °F 39.0 °F 89% 29.48 in 10.0 mi WSW 3.5 mph - 0.01 in   Mostly Cloudy
1:02 PM 42.8 °F 41.1 °F 39.2 °F 87% 29.47 in 10.0 mi West 3.5 mph - N/A   Mostly Cloudy
1:26 PM 42.8 °F - 39.2 °F 87% 29.48 in 10.0 mi Calm Calm - N/A   Mostly Cloudy
1:55 PM 43.0 °F - 40.1 °F 90% 29.49 in 10.0 mi Calm Calm - N/A   Overcast
2:06 PM 42.8 °F - 41.0 °F 93% 29.49 in 10.0 mi Calm Calm - N/A   Overcast
2:23 PM 42.8 °F - 41.0 °F 93% 29.48 in 10.0 mi Calm Calm - N/A   Overcast
2:28 PM 44.6 °F - 41.0 °F 87% 29.48 in 10.0 mi Calm Calm - N/A   Overcast
2:48 PM 44.6 °F 43.1 °F 42.8 °F 93% 29.49 in 10.0 mi ESE 3.5 mph - N/A   Overcast
2:52 PM 44.6 °F - 41.0 °F 87% 29.49 in 10.0 mi Calm Calm - N/A   Overcast
2:55 PM 44.4 °F - 41.5 °F 90% 29.49 in 10.0 mi Calm Calm - N/A   Overcast
3:00 PM 44.6 °F - 41.0 °F 87% 29.48 in 10.0 mi Calm Calm - N/A   Overcast
3:41 PM 48.2 °F - 42.8 °F 82% 29.49 in 10.0 mi Calm Calm - N/A   Mostly Cloudy
3:43 PM 48.2 °F - 42.8 °F 82% 29.48 in 10.0 mi Calm Calm - N/A   Mostly Cloudy
3:44 PM 48.2 °F - 42.8 °F 82% 29.49 in 10.0 mi Calm Calm - N/A   Mostly Cloudy
3:52 PM 48.2 °F - 42.8 °F 82% 29.49 in 10.0 mi Variable 3.5 mph - N/A   Mostly Cloudy
3:55 PM 47.7 °F - 42.8 °F 83% 29.49 in 10.0 mi SSE 3.5 mph - N/A   Mostly Cloudy
4:03 PM 48.2 °F - 42.8 °F 82% 29.49 in 10.0 mi ESE 4.6 mph - N/A   Mostly Cloudy
4:20 PM 48.2 °F - 42.8 °F 82% 29.48 in 10.0 mi Calm Calm - N/A   Mostly Cloudy
4:25 PM 48.2 °F - 42.8 °F 82% 29.48 in 10.0 mi Calm Calm - N/A   Mostly Cloudy
4:28 PM 48.2 °F - 42.8 °F 82% 29.48 in 10.0 mi Calm Calm - N/A   Overcast
4:45 PM 50.0 °F - 42.8 °F 76% 29.47 in 10.0 mi East 3.5 mph - N/A   Mostly Cloudy
4:55 PM 51.3 °F - 43.5 °F 75% 29.47 in 10.0 mi Calm Calm - N/A   Scattered Clouds
5:55 PM 51.3 °F - 42.3 °F 71% 29.47 in 10.0 mi Calm Calm - N/A   Mostly Cloudy
6:45 PM 48.2 °F - 42.8 °F 82% 29.47 in 10.0 mi ENE 6.9 mph - N/A Rain Light Rain
6:54 PM 48.2 °F - 42.8 °F 82% 29.47 in 10.0 mi NE 6.9 mph - N/A   Mostly Cloudy
6:55 PM 48.2 °F - 43.3 °F 83% 29.47 in 10.0 mi NE 5.8 mph - 0.00 in   Mostly Cloudy
7:04 PM 48.2 °F - 42.8 °F 82% 29.47 in 10.0 mi NE 5.8 mph - N/A Rain Light Rain
7:18 PM 48.2 °F - 42.8 °F 82% 29.46 in 10.0 mi NE 4.6 mph - N/A   Overcast
7:36 PM 48.2 °F - 42.8 °F 82% 29.46 in 10.0 mi NNE 4.6 mph - N/A Rain Light Rain
7:52 PM 46.4 °F 44.3 °F 42.8 °F 87% 29.45 in 10.0 mi NNE 4.6 mph - N/A   Partly Cloudy
7:55 PM 46.8 °F - 42.4 °F 85% 29.45 in 10.0 mi NE 4.6 mph - 0.00 in   Partly Cloudy
8:18 PM 46.4 °F - 42.8 °F 87% 29.45 in 10.0 mi Calm Calm - N/A Rain Light Rain
8:55 PM 46.4 °F - 43.3 °F 89% 29.46 in 10.0 mi Calm Calm - 0.00 in Rain Light Rain
9:10 PM 46.4 °F 41.9 °F 44.6 °F 93% 29.48 in 10.0 mi SSW 9.2 mph - N/A Rain Light Rain
9:22 PM 46.4 °F 41.1 °F 42.8 °F 87% 29.50 in 4.0 mi SSW 11.5 mph - N/A Rain Rain
9:23 PM 46.4 °F 41.1 °F 42.8 °F 87% 29.50 in 4.0 mi SSW 11.5 mph - N/A Rain Rain
9:42 PM 44.6 °F 40.7 °F 42.8 °F 93% 29.49 in 10.0 mi South 6.9 mph - N/A   Overcast
9:55 PM 44.4 °F 42.9 °F 42.3 °F 92% 29.49 in 10.0 mi South 3.5 mph - 0.08 in   Overcast
10:55 PM 42.4 °F 40.7 °F 41.2 °F 95% 29.50 in 10.0 mi SSE 3.5 mph - N/A   Mostly Cloudy
11:29 PM 42.8 °F 40.1 °F 41.0 °F 93% 29.51 in 10.0 mi South 4.6 mph - N/A Rain Light Rain
11:44 PM 42.8 °F 40.1 °F 41.0 °F 93% 29.52 in 10.0 mi South 4.6 mph - N/A   Mostly Cloudy
11:55 PM 41.9 °F 37.5 °F 40.8 °F 96% 29.52 in 10.0 mi South 6.9 mph - 0.00 in   Mostly Cloudy